This is the latest recevied weather packets stored in our database for station/object DL3MEB-6. If no packets are shown the sender has not sent any weather packets the latest 10 day(s).
| Time | Temp. | Humidity | Pressure | Rain* | Wind** | Luminosity | Snow |
|---|---|---|---|---|---|---|---|
| 1777547184 | 14.44° C | 25% | 1026.7 hPa | 0 mm | - | - | - |
| 1777547181 | 14.44° C | 25% | 1026.7 hPa | 0 mm | - | - | - |
| 1777546282 | 13.89° C | 25% | 1026.9 hPa | 0 mm | - | - | - |
| 1777545381 | 13.33° C | 25% | 1027.1 hPa | 0 mm | - | - | - |
| 1777544472 | 13.33° C | 26% | 1027.3 hPa | 0 mm | - | - | - |
| 1777543571 | 12.78° C | 26% | 1027.4 hPa | 0 mm | - | - | - |
| 1777542660 | 11.67° C | 28% | 1027.4 hPa | 0 mm | - | - | - |
| 1777542658 | 11.67° C | 28% | 1027.4 hPa | 0 mm | - | - | - |
| 1777541747 | 11.11° C | 28% | 1027.7 hPa | 0 mm | - | - | - |
| 1777540846 | 10.56° C | 31% | 1027.7 hPa | 0 mm | - | - | - |
| 1777539937 | 10° C | 33% | 1027.6 hPa | 0 mm | - | - | - |
| 1777539028 | 9.44° C | 36% | 1027.8 hPa | 0 mm | - | - | - |
| 1777538121 | 8.89° C | 34% | 1027.7 hPa | 0 mm | - | - | - |
| 1777537215 | 8.33° C | 35% | 1027.7 hPa | 0 mm | - | - | - |
| 1777536308 | 7.78° C | 34% | 1027.7 hPa | 0 mm | - | - | - |
| 1777535400 | 7.22° C | 35% | 1027.7 hPa | 0 mm | - | - | - |
| 1777534494 | 6.67° C | 37% | 1027.7 hPa | 0 mm | - | - | - |
| 1777533575 | 6.11° C | 38% | 1027.7 hPa | 0 mm | - | - | - |
| 1777532668 | 6.11° C | 39% | 1027.6 hPa | 0 mm | - | - | - |
| 1777531765 | 5.56° C | 39% | 1027.6 hPa | 0 mm | - | - | - |
| 1777530865 | 5° C | 42% | 1027.6 hPa | 0 mm | - | - | - |
| 1777529959 | 4.44° C | 43% | 1027.7 hPa | 0 mm | - | - | - |
| 1777529048 | 4.44° C | 44% | 1027.2 hPa | 0 mm | - | - | - |
| 1777528140 | 3.89° C | 45% | 1027.4 hPa | 0 mm | - | - | - |
| 1777527237 | 3.33° C | 45% | 1027.2 hPa | 0 mm | - | - | - |
* Rain latest hour (hover to see other rain measurements)
** Current wind speed in m/s (hover to see current wind gust speed)